Time,TemperatureF,DewpointF,PressureIn,WindDirection,WindDirectionDegrees,WindSpeedMPH,WindSpeedGustMPH,Humidity,HourlyPrecipIn,Conditions,Clouds,dailyrainin,SoftwareType,DateUTC
2013-06-03 00:03:00,53.1,31.1,30.56,West,270,1.0,4.0,43,0.00,,,0.00,meteohub,2013-06-03 06:03:00,
2013-06-03 00:08:00,53.2,31.3,30.56,SW,225,3.0,4.0,43,0.00,,,0.00,meteohub,2013-06-03 06:08:00,
2013-06-03 00:13:00,52.9,30.9,30.56,West,270,0.0,4.0,43,0.00,,,0.00,meteohub,2013-06-03 06:13:00,
2013-06-03 00:18:00,52.5,30.7,30.56,North,0,2.0,3.0,43,0.00,,,0.00,meteohub,2013-06-03 06:18:00,
2013-06-03 00:23:00,51.8,31.6,30.55,West,270,2.0,3.0,46,0.00,,,0.00,meteohub,2013-06-03 06:23:00,
2013-06-03 00:29:00,51.3,31.6,30.55,West,270,1.0,3.0,47,0.00,,,0.00,meteohub,2013-06-03 06:29:00,
2013-06-03 00:34:00,50.5,32.0,30.55,West,270,2.0,3.0,49,0.00,,,0.00,meteohub,2013-06-03 06:34:00,
2013-06-03 00:39:00,49.8,31.5,30.55,West,270,2.0,3.0,49,0.00,,,0.00,meteohub,2013-06-03 06:39:00,
2013-06-03 00:44:00,50.0,31.1,30.55,South,180,2.0,3.0,48,0.00,,,0.00,meteohub,2013-06-03 06:44:00,
2013-06-03 00:49:00,49.6,31.8,30.55,SW,225,2.0,3.0,50,0.00,,,0.00,meteohub,2013-06-03 06:49:00,
2013-06-03 00:54:00,49.3,32.0,30.55,West,270,2.0,3.0,51,0.00,,,0.00,meteohub,2013-06-03 06:54:00,
2013-06-03 00:59:00,49.1,33.3,30.55,SW,225,1.0,3.0,54,0.00,,,0.00,meteohub,2013-06-03 06:59:00,
2013-06-03 01:04:00,48.6,31.8,30.55,South,180,2.0,3.0,52,0.00,,,0.00,meteohub,2013-06-03 07:04:00,
2013-06-03 01:09:00,48.2,31.8,30.55,South,180,1.0,3.0,53,0.00,,,0.00,meteohub,2013-06-03 07:09:00,
2013-06-03 01:14:00,47.8,32.0,30.54,SW,225,0.0,3.0,54,0.00,,,0.00,meteohub,2013-06-03 07:14:00,
2013-06-03 01:19:00,47.3,32.4,30.54,SW,225,0.0,3.0,56,0.00,,,0.00,meteohub,2013-06-03 07:19:00,
2013-06-03 01:25:00,46.8,31.8,30.54,SW,225,2.0,2.0,56,0.00,,,0.00,meteohub,2013-06-03 07:25:00,
2013-06-03 01:30:00,47.1,31.8,30.54,South,180,2.0,2.0,55,0.00,,,0.00,meteohub,2013-06-03 07:30:00,
2013-06-03 01:35:00,46.8,32.4,30.55,West,270,2.0,2.0,57,0.00,,,0.00,meteohub,2013-06-03 07:35:00,
2013-06-03 01:40:00,46.8,31.5,30.55,SW,225,1.0,2.0,55,0.00,,,0.00,meteohub,2013-06-03 07:40:00,
2013-06-03 01:45:00,46.6,31.6,30.55,NE,45,1.0,2.0,56,0.00,,,0.00,meteohub,2013-06-03 07:45:00,
2013-06-03 01:51:00,46.0,31.6,30.55,SW,225,2.0,2.0,57,0.00,,,0.00,meteohub,2013-06-03 07:51:00,
2013-06-03 01:56:00,46.0,30.7,30.55,East,90,2.0,2.0,55,0.00,,,0.00,meteohub,2013-06-03 07:56:00,
2013-06-03 02:01:00,45.7,31.3,30.55,West,270,2.0,2.0,57,0.00,,,0.00,meteohub,2013-06-03 08:01:00,
2013-06-03 02:06:00,45.7,31.3,30.55,West,270,2.0,2.0,57,0.00,,,0.00,meteohub,2013-06-03 08:06:00,
2013-06-03 02:11:00,45.1,31.3,30.55,SW,225,1.0,2.0,58,0.00,,,0.00,meteohub,2013-06-03 08:11:00,
2013-06-03 02:16:00,44.6,30.7,30.54,SW,225,1.0,2.0,58,0.00,,,0.00,meteohub,2013-06-03 08:16:00,
2013-06-03 02:21:00,44.4,30.6,30.54,West,270,2.0,2.0,58,0.00,,,0.00,meteohub,2013-06-03 08:21:00,
2013-06-03 02:26:00,44.2,30.4,30.54,East,90,2.0,2.0,58,0.00,,,0.00,meteohub,2013-06-03 08:26:00,
2013-06-03 02:32:00,44.1,30.7,30.55,West,270,0.0,2.0,59,0.00,,,0.00,meteohub,2013-06-03 08:32:00,
2013-06-03 02:37:00,44.1,31.1,30.54,SW,225,1.0,2.0,60,0.00,,,0.00,meteohub,2013-06-03 08:37:00,
2013-06-03 02:42:00,44.1,31.1,30.54,West,270,2.0,2.0,60,0.00,,,0.00,meteohub,2013-06-03 08:42:00,
2013-06-03 02:47:00,44.2,30.7,30.55,SW,225,0.0,2.0,59,0.00,,,0.00,meteohub,2013-06-03 08:47:00,
2013-06-03 02:52:00,44.1,31.5,30.55,SW,225,2.0,2.0,61,0.00,,,0.00,meteohub,2013-06-03 08:52:00,
2013-06-03 02:57:00,44.1,31.1,30.54,East,90,2.0,2.0,60,0.00,,,0.00,meteohub,2013-06-03 08:57:00,
2013-06-03 03:02:00,43.9,31.6,30.54,SW,225,1.0,2.0,62,0.00,,,0.00,meteohub,2013-06-03 09:02:00,
2013-06-03 03:07:00,43.7,31.5,30.55,SW,225,0.0,2.0,62,0.00,,,0.00,meteohub,2013-06-03 09:07:00,
2013-06-03 03:12:00,43.3,31.3,30.55,SW,225,1.0,2.0,62,0.00,,,0.00,meteohub,2013-06-03 09:12:00,
2013-06-03 03:17:00,43.0,30.9,30.54,SW,225,0.0,2.0,62,0.00,,,0.00,meteohub,2013-06-03 09:17:00,
2013-06-03 03:22:00,42.6,31.3,30.54,West,270,1.0,1.0,64,0.00,,,0.00,meteohub,2013-06-03 09:22:00,
2013-06-03 03:27:00,42.3,30.9,30.54,SW,225,2.0,2.0,64,0.00,,,0.00,meteohub,2013-06-03 09:27:00,
2013-06-03 03:32:00,42.3,30.6,30.54,SE,135,2.0,2.0,63,0.00,,,0.00,meteohub,2013-06-03 09:32:00,
2013-06-03 03:37:00,42.3,30.9,30.54,North,0,2.0,2.0,64,0.00,,,0.00,meteohub,2013-06-03 09:37:00,
2013-06-03 03:42:00,42.3,30.9,30.54,South,180,1.0,2.0,64,0.00,,,0.00,meteohub,2013-06-03 09:42:00,
2013-06-03 03:47:00,42.1,30.7,30.55,West,270,3.0,3.0,64,0.00,,,0.00,meteohub,2013-06-03 09:47:00,
2013-06-03 03:52:00,42.4,30.7,30.55,SW,225,2.0,3.0,63,0.00,,,0.00,meteohub,2013-06-03 09:52:00,
2013-06-03 03:57:00,42.6,30.9,30.54,SW,225,2.0,4.0,63,0.00,,,0.00,meteohub,2013-06-03 09:57:00,
2013-06-03 04:03:00,42.8,30.2,30.55,SE,135,3.0,4.0,61,0.00,,,0.00,meteohub,2013-06-03 10:03:00,
2013-06-03 04:08:00,43.2,31.1,30.55,NW,315,2.0,4.0,62,0.00,,,0.00,meteohub,2013-06-03 10:08:00,
2013-06-03 04:13:00,43.2,31.1,30.55,SW,225,2.0,3.0,62,0.00,,,0.00,meteohub,2013-06-03 10:13:00,
2013-06-03 04:18:00,43.2,30.6,30.55,SW,225,2.0,3.0,61,0.00,,,0.00,meteohub,2013-06-03 10:18:00,
2013-06-03 04:23:00,43.2,30.2,30.54,North,0,2.0,3.0,60,0.00,,,0.00,meteohub,2013-06-03 10:23:00,
2013-06-03 04:28:00,43.7,29.8,30.55,East,90,2.0,3.0,58,0.00,,,0.00,meteohub,2013-06-03 10:28:00,
2013-06-03 04:33:00,45.0,30.2,30.55,West,270,2.0,4.0,56,0.00,,,0.00,meteohub,2013-06-03 10:33:00,
2013-06-03 04:39:00,45.7,30.9,30.55,West,270,2.0,4.0,56,0.00,,,0.00,meteohub,2013-06-03 10:39:00,
2013-06-03 04:44:00,45.9,30.6,30.55,North,0,2.0,4.0,55,0.00,,,0.00,meteohub,2013-06-03 10:44:00,
2013-06-03 04:49:00,45.9,31.1,30.56,West,270,2.0,3.0,56,0.00,,,0.00,meteohub,2013-06-03 10:49:00,
2013-06-03 04:54:00,46.0,31.3,30.55,SW,225,2.0,4.0,56,0.00,,,0.00,meteohub,2013-06-03 10:54:00,
2013-06-03 04:59:00,45.9,31.1,30.55,South,180,4.0,4.0,56,0.00,,,0.00,meteohub,2013-06-03 10:59:00,
2013-06-03 05:04:00,45.9,31.1,30.56,SW,225,2.0,4.0,56,0.00,,,0.00,meteohub,2013-06-03 11:04:00,
2013-06-03 05:09:00,45.9,31.1,30.56,SW,225,1.0,6.0,56,0.00,,,0.00,meteohub,2013-06-03 11:09:00,
2013-06-03 05:14:00,45.5,31.6,30.56,West,270,2.0,6.0,58,0.00,,,0.00,meteohub,2013-06-03 11:14:00,
2013-06-03 05:19:00,45.1,31.6,30.56,West,270,2.0,4.0,59,0.00,,,0.00,meteohub,2013-06-03 11:19:00,
2013-06-03 05:24:00,44.8,31.3,30.56,South,180,0.0,3.0,59,0.00,,,0.00,meteohub,2013-06-03 11:24:00,
2013-06-03 05:30:00,44.2,32.0,30.56,West,270,0.0,3.0,62,0.00,,,0.00,meteohub,2013-06-03 11:30:00,
2013-06-03 05:35:00,43.7,31.5,30.56,SW,225,1.0,2.0,62,0.00,,,0.00,meteohub,2013-06-03 11:35:00,
2013-06-03 05:40:00,43.0,30.9,30.56,SW,225,1.0,2.0,62,0.00,,,0.00,meteohub,2013-06-03 11:40:00,
2013-06-03 05:45:00,42.8,30.7,30.56,South,180,0.0,3.0,62,0.00,,,0.00,meteohub,2013-06-03 11:45:00,
2013-06-03 05:50:00,42.6,30.9,30.56,South,180,1.0,3.0,63,0.00,,,0.00,meteohub,2013-06-03 11:50:00,
2013-06-03 05:55:00,42.4,31.1,30.56,West,270,2.0,3.0,64,0.00,,,0.00,meteohub,2013-06-03 11:55:00,
2013-06-03 06:00:00,42.4,31.1,30.56,West,270,1.0,3.0,64,0.00,,,0.00,meteohub,2013-06-03 12:00:00,
2013-06-03 06:06:00,42.4,31.1,30.56,West,270,1.0,3.0,64,0.00,,,0.00,meteohub,2013-06-03 12:06:00,
2013-06-03 06:11:00,42.6,31.6,30.56,East,90,3.0,3.0,65,0.00,,,0.00,meteohub,2013-06-03 12:11:00,
2013-06-03 06:16:00,42.4,31.5,30.56,West,270,1.0,4.0,65,0.00,,,0.00,meteohub,2013-06-03 12:16:00,
2013-06-03 06:21:00,42.4,31.8,30.56,West,270,4.0,4.0,66,0.00,,,0.00,meteohub,2013-06-03 12:21:00,
2013-06-03 06:26:00,42.8,31.5,30.56,West,270,3.0,4.0,64,0.00,,,0.00,meteohub,2013-06-03 12:26:00,
2013-06-03 06:31:00,43.2,31.8,30.56,NE,45,2.0,4.0,64,0.00,,,0.00,meteohub,2013-06-03 12:31:00,
2013-06-03 06:36:00,43.3,32.0,30.56,West,270,2.0,4.0,64,0.00,,,0.00,meteohub,2013-06-03 12:36:00,
2013-06-03 06:42:00,43.5,32.2,30.56,East,90,3.0,4.0,64,0.00,,,0.00,meteohub,2013-06-03 12:42:00,
2013-06-03 06:47:00,43.9,32.5,30.56,East,90,2.0,4.0,64,0.00,,,0.00,meteohub,2013-06-03 12:47:00,
2013-06-03 06:52:00,44.2,33.3,30.56,North,0,6.0,6.0,65,0.00,,,0.00,meteohub,2013-06-03 12:52:00,
2013-06-03 06:57:00,44.6,33.3,30.56,NE,45,5.0,6.0,64,0.00,,,0.00,meteohub,2013-06-03 12:57:00,
2013-06-03 07:02:00,45.1,33.3,30.56,West,270,0.0,6.0,63,0.00,,,0.00,meteohub,2013-06-03 13:02:00,
2013-06-03 07:07:00,45.5,33.6,30.56,SW,225,1.0,6.0,63,0.00,,,0.00,meteohub,2013-06-03 13:07:00,
2013-06-03 07:12:00,46.0,33.8,30.55,ENE,68,2.0,5.0,62,0.00,,,0.00,meteohub,2013-06-03 13:12:00,
2013-06-03 07:17:00,47.1,34.7,30.55,SW,225,1.0,7.0,62,0.00,,,0.00,meteohub,2013-06-03 13:17:00,
2013-06-03 07:22:00,48.0,35.6,30.55,SW,225,2.0,7.0,62,0.00,,,0.00,meteohub,2013-06-03 13:22:00,
2013-06-03 07:27:00,48.7,35.4,30.56,West,270,1.0,7.0,60,0.00,,,0.00,meteohub,2013-06-03 13:27:00,
2013-06-03 07:32:00,49.3,35.6,30.55,SW,225,2.0,3.0,59,0.00,,,0.00,meteohub,2013-06-03 13:32:00,
2013-06-03 07:37:00,50.7,36.9,30.55,NE,45,2.0,3.0,59,0.00,,,0.00,meteohub,2013-06-03 13:37:00,
2013-06-03 07:42:00,52.3,36.7,30.55,SE,135,1.0,3.0,55,0.00,,,0.00,meteohub,2013-06-03 13:42:00,
2013-06-03 07:47:00,54.3,38.5,30.55,South,180,1.0,2.0,55,0.00,,,0.00,meteohub,2013-06-03 13:47:00,
2013-06-03 07:52:00,55.9,39.6,30.55,South,180,1.0,2.0,54,0.00,,,0.00,meteohub,2013-06-03 13:52:00,
2013-06-03 07:57:00,57.2,38.7,30.55,South,180,2.0,2.0,50,0.00,,,0.00,meteohub,2013-06-03 13:57:00,
2013-06-03 08:02:00,57.9,39.4,30.55,South,180,2.0,2.0,50,0.00,,,0.00,meteohub,2013-06-03 14:02:00,
2013-06-03 08:07:00,57.9,39.4,30.55,South,180,2.0,2.0,50,0.00,,,0.00,meteohub,2013-06-03 14:07:00,
2013-06-03 08:12:00,62.1,38.7,30.54,NE,45,2.0,2.0,42,0.00,,,0.00,meteohub,2013-06-03 14:12:00,
2013-06-03 08:17:00,64.0,40.5,30.55,SW,225,1.0,5.0,42,0.00,,,0.00,meteohub,2013-06-03 14:17:00,
2013-06-03 08:22:00,65.7,38.7,30.55,North,0,10.0,10.0,37,0.00,,,0.00,meteohub,2013-06-03 14:22:00,
2013-06-03 08:27:00,67.1,38.5,30.54,NE,45,7.0,10.0,35,0.00,,,0.00,meteohub,2013-06-03 14:27:00,
2013-06-03 08:32:00,68.7,38.5,30.54,East,90,5.0,10.0,33,0.00,,,0.00,meteohub,2013-06-03 14:32:00,
2013-06-03 08:37:00,70.9,40.3,30.54,NE,45,5.0,10.0,33,0.00,,,0.00,meteohub,2013-06-03 14:37:00,
2013-06-03 08:42:00,72.9,37.8,30.54,East,90,9.0,10.0,28,0.00,,,0.00,meteohub,2013-06-03 14:42:00,
2013-06-03 08:47:00,74.3,38.1,30.54,NE,45,4.0,10.0,27,0.00,,,0.00,meteohub,2013-06-03 14:47:00,
2013-06-03 08:52:00,74.8,38.7,30.54,West,270,6.0,10.0,27,0.00,,,0.00,meteohub,2013-06-03 14:52:00,
2013-06-03 08:57:00,75.6,38.3,30.54,SW,225,4.0,10.0,26,0.00,,,0.00,meteohub,2013-06-03 14:57:00,
2013-06-03 09:03:00,77.0,38.5,30.54,South,180,4.0,8.0,25,0.00,,,0.00,meteohub,2013-06-03 15:03:00,
2013-06-03 09:08:00,77.5,36.9,30.54,NE,45,8.0,8.0,23,0.00,,,0.00,meteohub,2013-06-03 15:08:00,
2013-06-03 09:13:00,77.5,37.9,30.54,SW,225,3.0,8.0,24,0.00,,,0.00,meteohub,2013-06-03 15:13:00,
2013-06-03 09:18:00,77.9,37.0,30.54,East,90,11.0,11.0,23,0.00,,,0.00,meteohub,2013-06-03 15:18:00,
2013-06-03 09:23:00,77.9,38.1,30.54,East,90,7.0,8.0,24,0.00,,,0.00,meteohub,2013-06-03 15:23:00,
2013-06-03 09:28:00,78.1,38.3,30.54,NE,45,8.0,11.0,24,0.00,,,0.00,meteohub,2013-06-03 15:28:00,
2013-06-03 09:33:00,78.3,37.4,30.54,South,180,3.0,11.0,23,0.00,,,0.00,meteohub,2013-06-03 15:33:00,
2013-06-03 09:39:00,78.8,36.7,30.53,WNW,293,5.0,9.0,22,0.00,,,0.00,meteohub,2013-06-03 15:39:00,
2013-06-03 09:44:00,79.0,35.8,30.53,NE,45,6.0,9.0,21,0.00,,,0.00,meteohub,2013-06-03 15:44:00,
2013-06-03 09:49:00,79.3,37.2,30.53,NE,45,9.0,13.0,22,0.00,,,0.00,meteohub,2013-06-03 15:49:00,
2013-06-03 09:54:00,79.3,37.2,30.53,NE,45,8.0,13.0,22,0.00,,,0.00,meteohub,2013-06-03 15:54:00,
2013-06-03 09:59:00,79.5,37.4,30.53,NE,45,5.0,13.0,22,0.00,,,0.00,meteohub,2013-06-03 15:59:00,
2013-06-03 10:04:00,79.5,37.4,30.54,NE,45,5.0,9.0,22,0.00,,,0.00,meteohub,2013-06-03 16:04:00,
2013-06-03 10:10:00,79.3,38.3,30.54,SE,135,4.0,9.0,23,0.00,,,0.00,meteohub,2013-06-03 16:10:00,
2013-06-03 10:15:00,79.7,37.6,30.53,SW,225,6.0,9.0,22,0.00,,,0.00,meteohub,2013-06-03 16:15:00,
2013-06-03 10:20:00,79.7,37.6,30.53,NE,45,7.0,11.0,22,0.00,,,0.00,meteohub,2013-06-03 16:20:00,
2013-06-03 10:25:00,80.1,38.8,30.53,SW,225,5.0,12.0,23,0.00,,,0.00,meteohub,2013-06-03 16:25:00,
2013-06-03 10:30:00,80.2,39.0,30.53,SE,135,8.0,12.0,23,0.00,,,0.00,meteohub,2013-06-03 16:30:00,
2013-06-03 10:35:00,80.4,38.1,30.53,South,180,7.0,12.0,22,0.00,,,0.00,meteohub,2013-06-03 16:35:00,
2013-06-03 10:40:00,80.4,38.1,30.53,South,180,2.0,9.0,22,0.00,,,0.00,meteohub,2013-06-03 16:40:00,
2013-06-03 10:46:00,80.8,37.2,30.53,East,90,8.0,9.0,21,0.00,,,0.00,meteohub,2013-06-03 16:46:00,
2013-06-03 10:51:00,81.1,37.6,30.53,SE,135,4.0,8.0,21,0.00,,,0.00,meteohub,2013-06-03 16:51:00,
2013-06-03 10:56:00,81.7,37.9,30.53,SE,135,4.0,8.0,21,0.00,,,0.00,meteohub,2013-06-03 16:56:00,
2013-06-03 11:01:00,81.9,38.1,30.53,SW,225,8.0,8.0,21,0.00,,,0.00,meteohub,2013-06-03 17:01:00,
2013-06-03 11:06:00,82.2,38.5,30.54,SW,225,4.0,8.0,21,0.00,,,0.00,meteohub,2013-06-03 17:06:00,
2013-06-03 11:11:00,82.4,40.8,30.53,West,270,4.0,8.0,23,0.00,,,0.00,meteohub,2013-06-03 17:11:00,
2013-06-03 11:16:00,82.4,43.0,30.53,SE,135,4.0,8.0,25,0.00,,,0.00,meteohub,2013-06-03 17:16:00,
2013-06-03 11:21:00,82.9,42.4,30.53,East,90,5.0,8.0,24,0.00,,,0.00,meteohub,2013-06-03 17:21:00,
2013-06-03 11:26:00,82.8,43.3,30.53,SW,225,1.0,9.0,25,0.00,,,0.00,meteohub,2013-06-03 17:26:00,
2013-06-03 11:32:00,83.3,42.8,30.53,NW,315,6.0,9.0,24,0.00,,,0.00,meteohub,2013-06-03 17:32:00,
2013-06-03 11:37:00,83.5,40.6,30.53,SE,135,8.0,9.0,22,0.00,,,0.00,meteohub,2013-06-03 17:37:00,
2013-06-03 11:42:00,83.1,39.2,30.53,North,0,6.0,9.0,21,0.00,,,0.00,meteohub,2013-06-03 17:42:00,
2013-06-03 11:47:00,83.1,37.9,30.53,NW,315,4.0,9.0,20,0.00,,,0.00,meteohub,2013-06-03 17:47:00,
2013-06-03 11:52:00,82.8,37.6,30.53,East,90,4.0,8.0,20,0.00,,,0.00,meteohub,2013-06-03 17:52:00,
2013-06-03 11:57:00,83.1,40.3,30.53,West,270,3.0,8.0,22,0.00,,,0.00,meteohub,2013-06-03 17:57:00,
2013-06-03 12:02:00,83.5,39.4,30.53,West,270,2.0,8.0,21,0.00,,,0.00,meteohub,2013-06-03 18:02:00,
2013-06-03 12:07:00,83.5,39.4,30.52,West,270,2.0,8.0,21,0.00,,,0.00,meteohub,2013-06-03 18:07:00,
2013-06-03 12:12:00,83.8,35.8,30.52,SW,225,6.0,8.0,18,0.00,,,0.00,meteohub,2013-06-03 18:12:00,
2013-06-03 12:17:00,83.8,37.2,30.52,East,90,5.0,8.0,19,0.00,,,0.00,meteohub,2013-06-03 18:17:00,
2013-06-03 12:23:00,83.8,35.8,30.51,SSW,203,8.0,8.0,18,0.00,,,0.00,meteohub,2013-06-03 18:23:00,
2013-06-03 12:28:00,83.8,35.8,30.51,SE,135,5.0,12.0,18,0.00,,,0.00,meteohub,2013-06-03 18:28:00,
2013-06-03 12:33:00,83.8,35.8,30.52,SE,135,8.0,12.0,18,0.00,,,0.00,meteohub,2013-06-03 18:33:00,
2013-06-03 12:38:00,84.2,34.7,30.52,SW,225,7.0,13.0,17,0.00,,,0.00,meteohub,2013-06-03 18:38:00,
2013-06-03 12:43:00,84.6,36.3,30.52,NW,315,7.0,13.0,18,0.00,,,0.00,meteohub,2013-06-03 18:43:00,
2013-06-03 12:48:00,85.6,35.8,30.51,NW,315,7.0,13.0,17,0.00,,,0.00,meteohub,2013-06-03 18:48:00,
2013-06-03 12:53:00,86.2,33.1,30.52,NE,45,5.0,12.0,15,0.00,,,0.00,meteohub,2013-06-03 18:53:00,
2013-06-03 12:58:00,85.1,35.4,30.52,North,0,8.0,12.0,17,0.00,,,0.00,meteohub,2013-06-03 18:58:00,
2013-06-03 13:03:00,84.6,36.3,30.52,NW,315,3.0,14.0,18,0.00,,,0.00,meteohub,2013-06-03 19:03:00,
2013-06-03 13:09:00,84.2,37.4,30.52,SW,225,4.0,14.0,19,0.00,,,0.00,meteohub,2013-06-03 19:09:00,
2013-06-03 13:14:00,84.0,37.4,30.52,SW,225,4.0,12.0,19,0.00,,,0.00,meteohub,2013-06-03 19:14:00,
2013-06-03 13:19:00,83.5,36.9,30.53,South,180,7.0,11.0,19,0.00,,,0.00,meteohub,2013-06-03 19:19:00,
2013-06-03 13:24:00,82.0,29.8,30.53,East,90,2.0,8.0,15,0.00,,,0.00,meteohub,2013-06-03 19:24:00,
2013-06-03 13:29:00,82.4,37.2,30.53,NW,315,7.0,9.0,20,0.00,,,0.00,meteohub,2013-06-03 19:29:00,
2013-06-03 13:34:00,82.6,36.1,30.53,SW,225,4.0,9.0,19,0.00,,,0.00,meteohub,2013-06-03 19:34:00,
2013-06-03 13:39:00,82.6,36.1,30.52,NE,45,4.0,9.0,19,0.00,,,0.00,meteohub,2013-06-03 19:39:00,
2013-06-03 13:44:00,82.6,36.1,30.52,WNW,293,6.0,11.0,19,0.00,,,0.00,meteohub,2013-06-03 19:44:00,
2013-06-03 13:49:00,81.7,31.1,30.52,SW,225,5.0,11.0,16,0.00,,,0.00,meteohub,2013-06-03 19:49:00,
2013-06-03 13:54:00,82.0,32.9,30.51,WNW,293,4.0,11.0,17,0.00,,,0.00,meteohub,2013-06-03 19:54:00,
2013-06-03 14:00:00,82.0,31.5,30.51,West,270,4.0,8.0,16,0.00,,,0.00,meteohub,2013-06-03 20:00:00,
2013-06-03 14:05:00,82.0,31.5,30.51,West,270,4.0,8.0,16,0.00,,,0.00,meteohub,2013-06-03 20:05:00,
2013-06-03 14:10:00,82.0,31.5,30.51,South,180,6.0,8.0,16,0.00,,,0.00,meteohub,2013-06-03 20:10:00,
2013-06-03 14:15:00,81.7,31.1,30.50,South,180,7.0,16.0,16,0.00,,,0.00,meteohub,2013-06-03 20:15:00,
2013-06-03 14:20:00,81.5,30.9,30.50,West,270,8.0,16.0,16,0.00,,,0.00,meteohub,2013-06-03 20:20:00,
2013-06-03 14:25:00,80.6,28.8,30.50,NW,315,5.0,16.0,15,0.00,,,0.00,meteohub,2013-06-03 20:25:00,
2013-06-03 14:30:00,80.1,31.3,30.50,West,270,4.0,15.0,17,0.00,,,0.00,meteohub,2013-06-03 20:30:00,
2013-06-03 14:36:00,80.1,29.8,30.49,South,180,3.0,15.0,16,0.00,,,0.00,meteohub,2013-06-03 20:36:00,
2013-06-03 14:41:00,80.6,28.8,30.49,SW,225,3.0,7.0,15,0.00,,,0.00,meteohub,2013-06-03 20:41:00,
2013-06-03 14:46:00,81.7,29.5,30.49,South,180,7.0,8.0,15,0.00,,,0.00,meteohub,2013-06-03 20:46:00,
2013-06-03 14:51:00,81.7,27.9,30.49,WNW,293,6.0,8.0,14,0.00,,,0.00,meteohub,2013-06-03 20:51:00,
2013-06-03 14:56:00,81.3,27.5,30.51,South,180,12.0,12.0,14,0.00,,,0.00,meteohub,2013-06-03 20:56:00,
2013-06-03 15:01:00,80.1,28.2,30.49,NE,45,4.0,16.0,15,0.00,,,0.00,meteohub,2013-06-03 21:01:00,
2013-06-03 15:06:00,81.3,27.5,30.49,West,270,2.0,16.0,14,0.00,,,0.00,meteohub,2013-06-03 21:06:00,
2013-06-03 15:11:00,82.8,34.9,30.48,NW,315,2.0,16.0,18,0.00,,,0.00,meteohub,2013-06-03 21:11:00,
2013-06-03 15:16:00,83.3,34.0,30.48,West,270,2.0,11.0,17,0.00,,,0.00,meteohub,2013-06-03 21:16:00,
2013-06-03 15:22:00,83.3,34.0,30.48,South,180,2.0,5.0,17,0.00,,,0.00,meteohub,2013-06-03 21:22:00,
2013-06-03 15:27:00,82.9,32.2,30.48,South,180,2.0,5.0,16,0.00,,,0.00,meteohub,2013-06-03 21:27:00,
2013-06-03 15:32:00,82.8,32.0,30.48,East,90,5.0,7.0,16,0.00,,,0.00,meteohub,2013-06-03 21:32:00,
2013-06-03 15:37:00,82.9,33.6,30.48,South,180,4.0,7.0,17,0.00,,,0.00,meteohub,2013-06-03 21:37:00,
2013-06-03 15:42:00,84.4,34.9,30.47,SE,135,5.0,7.0,17,0.00,,,0.00,meteohub,2013-06-03 21:42:00,
2013-06-03 15:47:00,84.6,33.4,30.48,NE,45,9.0,9.0,16,0.00,,,0.00,meteohub,2013-06-03 21:47:00,
2013-06-03 15:52:00,84.6,33.4,30.47,SW,225,2.0,9.0,16,0.00,,,0.00,meteohub,2013-06-03 21:52:00,
2013-06-03 15:58:00,84.4,31.6,30.47,South,180,2.0,9.0,15,0.00,,,0.00,meteohub,2013-06-03 21:58:00,
2013-06-03 16:03:00,84.0,34.5,30.47,NW,315,2.0,9.0,17,0.00,,,0.00,meteohub,2013-06-03 22:03:00,
2013-06-03 16:08:00,82.6,31.8,30.48,NE,45,3.0,7.0,16,0.00,,,0.00,meteohub,2013-06-03 22:08:00,
2013-06-03 16:13:00,81.5,25.9,30.48,East,90,4.0,8.0,13,0.00,,,0.00,meteohub,2013-06-03 22:13:00,
2013-06-03 16:18:00,81.0,28.9,30.49,NE,45,3.0,8.0,15,0.00,,,0.00,meteohub,2013-06-03 22:18:00,
2013-06-03 16:23:00,79.7,28.0,30.49,SW,225,8.0,8.0,15,0.00,,,0.00,meteohub,2013-06-03 22:23:00,
2013-06-03 16:28:00,78.6,30.2,30.48,SW,225,17.0,21.0,17,0.00,,,0.00,meteohub,2013-06-03 22:28:00,
2013-06-03 16:34:00,77.7,30.9,30.49,SW,225,11.0,21.0,18,0.00,,,0.00,meteohub,2013-06-03 22:34:00,
2013-06-03 16:39:00,76.8,34.0,30.49,SE,135,7.0,17.0,21,0.00,,,0.00,meteohub,2013-06-03 22:39:00,
2013-06-03 16:44:00,75.9,33.3,30.49,SE,135,7.0,17.0,21,0.00,,,0.00,meteohub,2013-06-03 22:44:00,
2013-06-03 16:49:00,75.9,30.7,30.50,NW,315,7.0,14.0,19,0.00,,,0.00,meteohub,2013-06-03 22:49:00,
2013-06-03 16:54:00,76.3,30.9,30.50,West,270,11.0,14.0,19,0.00,,,0.00,meteohub,2013-06-03 22:54:00,
2013-06-03 16:59:00,76.3,30.9,30.51,SE,135,7.0,7.0,19,0.00,,,0.00,meteohub,2013-06-03 22:59:00,
2013-06-03 17:04:00,75.9,32.0,30.51,SSW,203,4.0,11.0,20,0.00,,,0.00,meteohub,2013-06-03 23:04:00,
2013-06-03 17:10:00,75.7,31.8,30.52,East,90,5.0,11.0,20,0.00,,,0.00,meteohub,2013-06-03 23:10:00,
2013-06-03 17:15:00,75.4,31.5,30.52,South,180,6.0,9.0,20,0.00,,,0.00,meteohub,2013-06-03 23:15:00,
2013-06-03 17:20:00,75.0,34.7,30.53,West,270,4.0,14.0,23,0.00,,,0.00,meteohub,2013-06-03 23:20:00,
2013-06-03 17:25:00,74.3,35.2,30.52,South,180,6.0,16.0,24,0.00,,,0.00,meteohub,2013-06-03 23:25:00,
2013-06-03 17:30:00,73.8,35.8,30.53,NE,45,4.0,16.0,25,0.00,,,0.00,meteohub,2013-06-03 23:30:00,
2013-06-03 17:35:00,73.4,35.4,30.54,SE,135,6.0,16.0,25,0.00,,,0.00,meteohub,2013-06-03 23:35:00,
2013-06-03 17:41:00,72.7,31.6,30.54,SE,135,8.0,11.0,22,0.00,,,0.00,meteohub,2013-06-03 23:41:00,
2013-06-03 17:46:00,72.1,32.4,30.54,East,90,6.0,14.0,23,0.00,,,0.00,meteohub,2013-06-03 23:46:00,
2013-06-03 17:51:00,71.8,33.1,30.54,SE,135,12.0,14.0,24,0.00,,,0.00,meteohub,2013-06-03 23:51:00,
2013-06-03 17:56:00,71.6,31.8,30.53,NW,315,14.0,14.0,23,0.00,,,0.00,meteohub,2013-06-03 23:56:00,
2013-06-03 18:01:00,71.8,33.1,30.53,East,90,4.0,14.0,24,0.00,,,0.00,meteohub,2013-06-04 00:01:00,
2013-06-03 18:06:00,71.8,33.1,30.53,East,90,4.0,14.0,24,0.00,,,0.00,meteohub,2013-06-04 00:06:00,
2013-06-03 18:11:00,73.4,35.4,30.53,West,270,7.0,14.0,25,0.00,,,0.00,meteohub,2013-06-04 00:11:00,
2013-06-03 18:16:00,73.9,36.0,30.53,South,180,7.0,13.0,25,0.00,,,0.00,meteohub,2013-06-04 00:16:00,
2013-06-03 18:22:00,74.3,36.1,30.53,NE,45,4.0,13.0,25,0.00,,,0.00,meteohub,2013-06-04 00:22:00,
2013-06-03 18:27:00,74.5,35.2,30.53,NE,45,5.0,13.0,24,0.00,,,0.00,meteohub,2013-06-04 00:27:00,
2013-06-03 18:32:00,74.3,35.2,30.53,SW,225,3.0,11.0,24,0.00,,,0.00,meteohub,2013-06-04 00:32:00,
2013-06-03 18:37:00,74.3,35.2,30.54,NW,315,7.0,11.0,24,0.00,,,0.00,meteohub,2013-06-04 00:37:00,
2013-06-03 18:42:00,74.1,35.1,30.53,West,270,4.0,11.0,24,0.00,,,0.00,meteohub,2013-06-04 00:42:00,
2013-06-03 18:47:00,73.9,36.0,30.54,SE,135,4.0,11.0,25,0.00,,,0.00,meteohub,2013-06-04 00:47:00,
2013-06-03 18:52:00,73.6,35.6,30.54,SE,135,2.0,11.0,25,0.00,,,0.00,meteohub,2013-06-04 00:52:00,
2013-06-03 18:58:00,73.2,30.9,30.54,East,90,6.0,11.0,21,0.00,,,0.00,meteohub,2013-06-04 00:58:00,
2013-06-03 19:03:00,72.9,30.6,30.54,NE,45,5.0,10.0,21,0.00,,,0.00,meteohub,2013-06-04 01:03:00,
2013-06-03 19:08:00,72.3,31.3,30.54,NE,45,8.0,10.0,22,0.00,,,0.00,meteohub,2013-06-04 01:08:00,
2013-06-03 19:13:00,72.1,31.1,30.54,SE,135,4.0,10.0,22,0.00,,,0.00,meteohub,2013-06-04 01:13:00,
2013-06-03 19:19:00,71.8,32.0,30.54,WSW,248,1.0,8.0,23,0.00,,,0.00,meteohub,2013-06-04 01:19:00,
2013-06-03 19:24:00,71.4,32.7,30.54,NE,45,2.0,8.0,24,0.00,,,0.00,meteohub,2013-06-04 01:24:00,
2013-06-03 19:29:00,71.1,33.4,30.55,SW,225,3.0,7.0,25,0.00,,,0.00,meteohub,2013-06-04 01:29:00,
2013-06-03 19:34:00,70.9,32.4,30.55,SE,135,2.0,5.0,24,0.00,,,0.00,meteohub,2013-06-04 01:34:00,
2013-06-03 19:39:00,71.1,32.4,30.55,NW,315,2.0,4.0,24,0.00,,,0.00,meteohub,2013-06-04 01:39:00,
2013-06-03 19:44:00,71.1,32.4,30.55,West,270,2.0,4.0,24,0.00,,,0.00,meteohub,2013-06-04 01:44:00,
2013-06-03 19:49:00,71.1,33.4,30.55,North,0,4.0,4.0,25,0.00,,,0.00,meteohub,2013-06-04 01:49:00,
2013-06-03 19:54:00,70.9,33.3,30.55,SW,225,1.0,4.0,25,0.00,,,0.00,meteohub,2013-06-04 01:54:00,
2013-06-03 20:00:00,70.0,34.5,30.55,SW,225,1.0,4.0,27,0.00,,,0.00,meteohub,2013-06-04 02:00:00,
2013-06-03 20:05:00,70.0,34.5,30.55,SW,225,1.0,4.0,27,0.00,,,0.00,meteohub,2013-06-04 02:05:00,
2013-06-03 20:10:00,68.2,34.7,30.55,SE,135,2.0,4.0,29,0.00,,,0.00,meteohub,2013-06-04 02:10:00,
2013-06-03 20:15:00,67.8,35.2,30.55,NW,315,2.0,3.0,30,0.00,,,0.00,meteohub,2013-06-04 02:15:00,
2013-06-03 20:20:00,66.9,34.5,30.55,West,270,2.0,3.0,30,0.00,,,0.00,meteohub,2013-06-04 02:20:00,
2013-06-03 20:25:00,66.7,34.3,30.55,SW,225,1.0,3.0,30,0.00,,,0.00,meteohub,2013-06-04 02:25:00,
2013-06-03 20:30:00,66.4,34.0,30.55,SW,225,2.0,2.0,30,0.00,,,0.00,meteohub,2013-06-04 02:30:00,
2013-06-03 20:35:00,65.8,34.3,30.55,SW,225,2.0,2.0,31,0.00,,,0.00,meteohub,2013-06-04 02:35:00,
2013-06-03 20:41:00,65.5,34.9,30.55,SW,225,2.0,2.0,32,0.00,,,0.00,meteohub,2013-06-04 02:41:00,
2013-06-03 20:46:00,65.5,34.9,30.55,SW,225,2.0,3.0,32,0.00,,,0.00,meteohub,2013-06-04 02:46:00,
2013-06-03 20:51:00,64.8,35.8,30.55,SW,225,2.0,3.0,34,0.00,,,0.00,meteohub,2013-06-04 02:51:00,
2013-06-03 20:56:00,64.0,34.3,30.54,SW,225,2.0,3.0,33,0.00,,,0.00,meteohub,2013-06-04 02:56:00,
2013-06-03 21:01:00,62.6,34.5,30.55,SW,225,2.0,3.0,35,0.00,,,0.00,meteohub,2013-06-04 03:01:00,
2013-06-03 21:06:00,61.9,34.0,30.56,West,270,2.0,3.0,35,0.00,,,0.00,meteohub,2013-06-04 03:06:00,
2013-06-03 21:11:00,61.7,33.8,30.56,SW,225,0.0,3.0,35,0.00,,,0.00,meteohub,2013-06-04 03:11:00,
2013-06-03 21:16:00,61.2,34.0,30.56,SW,225,1.0,3.0,36,0.00,,,0.00,meteohub,2013-06-04 03:16:00,
2013-06-03 21:22:00,60.1,35.6,30.56,SW,225,2.0,2.0,40,0.00,,,0.00,meteohub,2013-06-04 03:22:00,
2013-06-03 21:27:00,59.0,36.5,30.57,West,270,1.0,2.0,43,0.00,,,0.00,meteohub,2013-06-04 03:27:00,
2013-06-03 21:32:00,58.1,36.9,30.57,SW,225,1.0,2.0,45,0.00,,,0.00,meteohub,2013-06-04 03:32:00,
2013-06-03 21:37:00,57.2,35.4,30.57,SW,225,1.0,2.0,44,0.00,,,0.00,meteohub,2013-06-04 03:37:00,
2013-06-03 21:42:00,56.3,36.3,30.58,SW,225,0.0,2.0,47,0.00,,,0.00,meteohub,2013-06-04 03:42:00,
2013-06-03 21:47:00,55.6,35.6,30.58,SW,225,2.0,2.0,47,0.00,,,0.00,meteohub,2013-06-04 03:47:00,
2013-06-03 21:53:00,54.9,36.1,30.58,West,270,2.0,2.0,49,0.00,,,0.00,meteohub,2013-06-04 03:53:00,
2013-06-03 21:58:00,54.7,35.4,30.58,SE,135,1.0,2.0,48,0.00,,,0.00,meteohub,2013-06-04 03:58:00,
2013-06-03 22:01:00,54.7,36.0,30.58,South,180,0.0,2.0,49,0.00,,,0.00,meteohub,2013-06-04 04:01:00,
2013-06-03 22:02:00,54.7,36.0,30.58,South,180,0.0,2.0,49,0.00,,,0.00,meteohub,2013-06-04 04:02:00,
2013-06-03 22:03:00,54.7,36.0,30.58,South,180,0.0,2.0,49,0.00,,,0.00,meteohub,2013-06-04 04:03:00,
2013-06-03 22:08:00,54.7,36.0,30.58,East,90,1.0,2.0,49,0.00,,,0.00,meteohub,2013-06-04 04:08:00,
2013-06-03 22:09:00,54.7,36.0,30.58,East,90,1.0,2.0,49,0.00,,,0.00,meteohub,2013-06-04 04:09:00,
2013-06-03 22:14:00,54.3,36.1,30.58,SW,225,2.0,2.0,50,0.00,,,0.00,meteohub,2013-06-04 04:14:00,
2013-06-03 22:19:00,54.1,36.0,30.58,North,0,2.0,3.0,50,0.00,,,0.00,meteohub,2013-06-04 04:19:00,
2013-06-03 22:24:00,54.1,35.4,30.58,West,270,2.0,3.0,49,0.00,,,0.00,meteohub,2013-06-04 04:24:00,
2013-06-03 22:29:00,54.1,35.4,30.58,South,180,1.0,3.0,49,0.00,,,0.00,meteohub,2013-06-04 04:29:00,
2013-06-03 22:35:00,54.0,35.8,30.58,SW,225,1.0,2.0,50,0.00,,,0.00,meteohub,2013-06-04 04:35:00,
2013-06-03 22:40:00,53.6,36.0,30.58,West,270,2.0,2.0,51,0.00,,,0.00,meteohub,2013-06-04 04:40:00,
2013-06-03 22:45:00,53.2,36.1,30.58,WSW,248,0.0,2.0,52,0.00,,,0.00,meteohub,2013-06-04 04:45:00,
2013-06-03 22:50:00,52.7,36.0,30.58,SW,225,1.0,2.0,53,0.00,,,0.00,meteohub,2013-06-04 04:50:00,
2013-06-03 22:55:00,52.3,35.8,30.58,SW,225,2.0,2.0,53,0.00,,,0.00,meteohub,2013-06-04 04:55:00,
2013-06-03 23:00:00,52.0,35.4,30.58,SW,225,1.0,2.0,53,0.00,,,0.00,meteohub,2013-06-04 05:00:00,
2013-06-03 23:05:00,51.6,35.6,30.58,SW,225,2.0,2.0,54,0.00,,,0.00,meteohub,2013-06-04 05:05:00,
2013-06-03 23:10:00,51.4,35.4,30.58,South,180,2.0,2.0,54,0.00,,,0.00,meteohub,2013-06-04 05:10:00,
2013-06-03 23:16:00,51.3,35.6,30.58,West,270,1.0,2.0,55,0.00,,,0.00,meteohub,2013-06-04 05:16:00,
2013-06-03 23:21:00,50.9,35.2,30.58,SW,225,3.0,3.0,55,0.00,,,0.00,meteohub,2013-06-04 05:21:00,
2013-06-03 23:26:00,50.7,35.1,30.59,SE,135,2.0,3.0,55,0.00,,,0.00,meteohub,2013-06-04 05:26:00,
2013-06-03 23:31:00,50.5,35.4,30.59,SW,225,2.0,3.0,56,0.00,,,0.00,meteohub,2013-06-04 05:31:00,
2013-06-03 23:36:00,50.9,35.2,30.58,West,270,2.0,3.0,55,0.00,,,0.00,meteohub,2013-06-04 05:36:00,
2013-06-03 23:41:00,50.9,35.8,30.58,West,270,2.0,2.0,56,0.00,,,0.00,meteohub,2013-06-04 05:41:00,
2013-06-03 23:46:00,50.9,35.8,30.58,SW,225,2.0,2.0,56,0.00,,,0.00,meteohub,2013-06-04 05:46:00,
2013-06-03 23:51:00,50.7,35.6,30.58,West,270,2.0,2.0,56,0.00,,,0.00,meteohub,2013-06-04 05:51:00,
2013-06-03 23:56:00,50.4,35.2,30.59,SW,225,1.0,2.0,56,0.00,,,0.00,meteohub,2013-06-04 05:56:00,